Wetterdaten: Sonntag, 09.08.2020
Datum Zeit Temp. Auen Feucht Auen Luftdruck Regen Richtung Richtung Windben
09.08.2020 00:00 18,2 C 83 % 1018,4 hPa 0,0 mm W 271 0,0 km/h (0 Bft)
09.08.2020 00:05 18,1 C 83 % 1018,4 hPa 0,0 mm W 271 0,0 km/h (0 Bft)
09.08.2020 00:10 18,1 C 83 % 1018,5 hPa 0,0 mm W 271 0,0 km/h (0 Bft)
09.08.2020 00:15 18,0 C 84 % 1018,4 hPa 0,0 mm W 271 0,0 km/h (0 Bft)
09.08.2020 00:20 17,9 C 84 % 1018,4 hPa 0,0 mm W 271 0,0 km/h (0 Bft)
09.08.2020 00:25 17,9 C 84 % 1018,4 hPa 0,0 mm W 271 0,0 km/h (0 Bft)
09.08.2020 00:30 17,8 C 84 % 1018,5 hPa 0,0 mm W 271 0,0 km/h (0 Bft)
09.08.2020 00:35 17,7 C 84 % 1018,5 hPa 0,0 mm W 271 4,8 km/h (1 Bft)
09.08.2020 00:40 17,7 C 84 % 1018,5 hPa 0,0 mm W 271 3,2 km/h (1 Bft)
09.08.2020 00:45 17,6 C 84 % 1018,5 hPa 0,0 mm W 271 1,6 km/h (1 Bft)
09.08.2020 00:50 17,6 C 84 % 1018,4 hPa 0,0 mm W 271 1,6 km/h (1 Bft)
09.08.2020 00:55 17,5 C 85 % 1018,4 hPa 0,0 mm W 271 0,0 km/h (0 Bft)
09.08.2020 01:00 17,4 C 85 % 1018,5 hPa 0,0 mm W 271 3,2 km/h (1 Bft)
09.08.2020 01:05 17,4 C 85 % 1018,5 hPa 0,0 mm W 271 4,8 km/h (1 Bft)
09.08.2020 01:10 17,3 C 85 % 1018,5 hPa 0,0 mm W 271 3,2 km/h (1 Bft)
09.08.2020 01:15 17,3 C 85 % 1018,5 hPa 0,0 mm W 271 1,6 km/h (1 Bft)
09.08.2020 01:20 17,2 C 85 % 1018,4 hPa 0,0 mm W 271 0,0 km/h (0 Bft)
09.08.2020 01:25 17,1 C 85 % 1018,3 hPa 0,0 mm W 271 0,0 km/h (0 Bft)
09.08.2020 01:30 17,1 C 85 % 1018,3 hPa 0,0 mm W 271 0,0 km/h (0 Bft)
09.08.2020 01:35 17,0 C 85 % 1018,4 hPa 0,0 mm W 271 0,0 km/h (0 Bft)
09.08.2020 01:40 16,9 C 85 % 1018,4 hPa 0,0 mm W 271 0,0 km/h (0 Bft)
09.08.2020 01:45 16,8 C 85 % 1018,4 hPa 0,0 mm W 271 0,0 km/h (0 Bft)
09.08.2020 01:50 16,8 C 85 % 1018,4 hPa 0,0 mm W 271 0,0 km/h (0 Bft)
09.08.2020 01:55 16,7 C 85 % 1018,3 hPa 0,0 mm W 271 0,0 km/h (0 Bft)
09.08.2020 02:00 16,6 C 86 % 1018,4 hPa 0,0 mm W 271 0,0 km/h (0 Bft)
09.08.2020 02:05 16,6 C 86 % 1018,3 hPa 0,0 mm W 271 0,0 km/h (0 Bft)
09.08.2020 02:10 16,5 C 86 % 1018,3 hPa 0,0 mm W 271 0,0 km/h (0 Bft)
09.08.2020 02:15 16,4 C 86 % 1018,2 hPa 0,0 mm W 271 0,0 km/h (0 Bft)
09.08.2020 02:20 16,4 C 86 % 1018,1 hPa 0,0 mm W 271 0,0 km/h (0 Bft)
09.08.2020 02:25 16,4 C 86 % 1018,1 hPa 0,0 mm W 271 0,0 km/h (0 Bft)
09.08.2020 02:30 16,3 C 86 % 1018,1 hPa 0,0 mm W 271 0,0 km/h (0 Bft)
09.08.2020 02:35 16,3 C 86 % 1018,2 hPa 0,0 mm W 271 0,0 km/h (0 Bft)
09.08.2020 02:40 16,3 C 87 % 1018,1 hPa 0,0 mm W 271 4,8 km/h (1 Bft)
09.08.2020 02:45 16,2 C 87 % 1018,1 hPa 0,0 mm W 271 4,8 km/h (1 Bft)
09.08.2020 02:50 16,2 C 87 % 1018,1 hPa 0,0 mm W 271 3,2 km/h (1 Bft)
09.08.2020 02:55 16,1 C 87 % 1018,1 hPa 0,0 mm W 271 1,6 km/h (1 Bft)
09.08.2020 03:00 16,1 C 87 % 1018,1 hPa 0,0 mm W 271 1,6 km/h (1 Bft)
09.08.2020 03:05 16,1 C 87 % 1018,0 hPa 0,0 mm W 271 0,0 km/h (0 Bft)
09.08.2020 03:10 16,0 C 87 % 1017,9 hPa 0,0 mm W 271 3,2 km/h (1 Bft)
09.08.2020 03:15 16,0 C 87 % 1018,0 hPa 0,0 mm W 271 4,8 km/h (1 Bft)
09.08.2020 03:20 15,9 C 87 % 1018,0 hPa 0,0 mm W 271 3,2 km/h (1 Bft)
09.08.2020 03:25 15,9 C 87 % 1018,0 hPa 0,0 mm W 271 3,2 km/h (1 Bft)
09.08.2020 03:30 15,8 C 87 % 1018,0 hPa 0,0 mm W 271 0,0 km/h (0 Bft)
09.08.2020 03:35 15,8 C 87 % 1018,0 hPa 0,0 mm W 271 1,6 km/h (1 Bft)
09.08.2020 03:40 15,7 C 87 % 1018,0 hPa 0,0 mm W 271 1,6 km/h (1 Bft)
09.08.2020 03:45 15,7 C 87 % 1018,0 hPa 0,0 mm W 271 3,2 km/h (1 Bft)
09.08.2020 03:50 15,7 C 88 % 1018,0 hPa 0,0 mm W 271 3,2 km/h (1 Bft)
09.08.2020 03:55 15,7 C 88 % 1017,9 hPa 0,0 mm W 271 3,2 km/h (1 Bft)
09.08.2020 04:00 15,6 C 88 % 1017,9 hPa 0,0 mm W 271 4,8 km/h (1 Bft)
09.08.2020 04:05 15,6 C 88 % 1017,9 hPa 0,0 mm W 271 3,2 km/h (1 Bft)
09.08.2020 04:10 15,6 C 88 % 1017,9 hPa 0,0 mm W 271 3,2 km/h (1 Bft)
09.08.2020 04:15 15,6 C 88 % 1017,9 hPa 0,0 mm W 271 0,0 km/h (0 Bft)
09.08.2020 04:20 15,5 C 88 % 1017,9 hPa 0,0 mm W 271 0,0 km/h (0 Bft)
09.08.2020 04:25 15,5 C 88 % 1018,0 hPa 0,0 mm W 271 0,0 km/h (0 Bft)
09.08.2020 04:30 15,4 C 88 % 1017,9 hPa 0,0 mm W 271 1,6 km/h (1 Bft)
09.08.2020 04:35 15,4 C 88 % 1018,0 hPa 0,0 mm W 271 0,0 km/h (0 Bft)
09.08.2020 04:40 15,3 C 88 % 1017,9 hPa 0,0 mm W 271 0,0 km/h (0 Bft)
09.08.2020 04:45 15,3 C 88 % 1017,9 hPa 0,0 mm W 271 0,0 km/h (0 Bft)
09.08.2020 04:50 15,2 C 88 % 1017,9 hPa 0,0 mm W 271 0,0 km/h (0 Bft)
09.08.2020 04:55 15,2 C 88 % 1017,9 hPa 0,0 mm W 271 0,0 km/h (0 Bft)
09.08.2020 05:00 15,1 C 88 % 1017,9 hPa 0,0 mm W 271 0,0 km/h (0 Bft)
09.08.2020 05:05 15,1 C 88 % 1017,9 hPa 0,0 mm W 271 0,0 km/h (0 Bft)
09.08.2020 05:10 15,0 C 88 % 1017,9 hPa 0,0 mm W 271 0,0 km/h (0 Bft)
09.08.2020 05:15 14,9 C 88 % 1017,8 hPa 0,0 mm W 271 0,0 km/h (0 Bft)
09.08.2020 05:20 14,9 C 88 % 1018,0 hPa 0,0 mm W 271 0,0 km/h (0 Bft)
09.08.2020 05:25 14,8 C 88 % 1017,9 hPa 0,0 mm W 271 0,0 km/h (0 Bft)
09.08.2020 05:30 14,8 C 88 % 1017,9 hPa 0,0 mm W 271 0,0 km/h (0 Bft)
09.08.2020 05:35 14,7 C 88 % 1017,9 hPa 0,0 mm W 271 1,6 km/h (1 Bft)
09.08.2020 05:40 14,7 C 88 % 1017,9 hPa 0,0 mm W 271 0,0 km/h (0 Bft)
09.08.2020 05:45 14,6 C 88 % 1017,9 hPa 0,0 mm W 271 0,0 km/h (0 Bft)
09.08.2020 05:50 14,6 C 89 % 1018,0 hPa 0,0 mm W 271 1,6 km/h (1 Bft)
09.08.2020 05:55 14,6 C 89 % 1018,0 hPa 0,0 mm W 271 3,2 km/h (1 Bft)
09.08.2020 06:00 14,5 C 88 % 1018,0 hPa 0,0 mm W 271 1,6 km/h (1 Bft)
09.08.2020 06:05 14,4 C 89 % 1018,0 hPa 0,0 mm W 271 1,6 km/h (1 Bft)
09.08.2020 06:10 14,4 C 89 % 1018,1 hPa 0,0 mm W 271 1,6 km/h (1 Bft)
09.08.2020 06:15 14,4 C 89 % 1018,1 hPa 0,0 mm W 271 0,0 km/h (0 Bft)
09.08.2020 06:20 14,4 C 89 % 1018,2 hPa 0,0 mm W 271 0,0 km/h (0 Bft)
09.08.2020 06:25 14,4 C 89 % 1018,1 hPa 0,0 mm W 271 0,0 km/h (0 Bft)
09.08.2020 06:30 14,5 C 89 % 1018,2 hPa 0,0 mm W 271 1,6 km/h (1 Bft)
09.08.2020 06:35 14,6 C 89 % 1018,2 hPa 0,0 mm W 271 1,6 km/h (1 Bft)
09.08.2020 06:40 14,7 C 90 % 1018,2 hPa 0,0 mm W 271 1,6 km/h (1 Bft)
09.08.2020 06:45 14,9 C 90 % 1018,2 hPa 0,0 mm W 271 1,6 km/h (1 Bft)
09.08.2020 06:50 15,2 C 90 % 1018,3 hPa 0,0 mm W 271 0,0 km/h (0 Bft)
09.08.2020 06:55 15,6 C 90 % 1018,3 hPa 0,0 mm W 271 0,0 km/h (0 Bft)
09.08.2020 07:00 15,8 C 90 % 1018,2 hPa 0,0 mm W 271 0,0 km/h (0 Bft)
09.08.2020 07:05 16,1 C 90 % 1018,3 hPa 0,0 mm W 271 0,0 km/h (0 Bft)
09.08.2020 07:10 16,5 C 91 % 1018,3 hPa 0,0 mm W 271 1,6 km/h (1 Bft)
09.08.2020 07:15 16,9 C 91 % 1018,3 hPa 0,0 mm W 271 3,2 km/h (1 Bft)
09.08.2020 07:20 17,2 C 91 % 1018,3 hPa 0,0 mm W 271 3,2 km/h (1 Bft)
09.08.2020 07:25 17,6 C 91 % 1018,4 hPa 0,0 mm W 271 1,6 km/h (1 Bft)
09.08.2020 07:30 17,9 C 91 % 1018,4 hPa 0,0 mm W 271 3,2 km/h (1 Bft)
09.08.2020 07:35 18,3 C 91 % 1018,4 hPa 0,0 mm W 271 0,0 km/h (0 Bft)
09.08.2020 07:40 18,7 C 90 % 1018,4 hPa 0,0 mm W 271 0,0 km/h (0 Bft)
09.08.2020 07:45 19,0 C 90 % 1018,4 hPa 0,0 mm W 271 1,6 km/h (1 Bft)
09.08.2020 07:50 19,4 C 90 % 1018,4 hPa 0,0 mm W 271 1,6 km/h (1 Bft)
09.08.2020 07:55 19,7 C 89 % 1018,4 hPa 0,0 mm W 271 0,0 km/h (0 Bft)
09.08.2020 08:00 19,2 C 85 % 1018,3 hPa 0,0 mm W 271 0,0 km/h (0 Bft)
09.08.2020 08:05 19,1 C 86 % 1018,4 hPa 0,0 mm W 271 0,0 km/h (0 Bft)
09.08.2020 08:10 19,2 C 84 % 1018,5 hPa 0,0 mm W 271 0,0 km/h (0 Bft)
09.08.2020 08:15 19,7 C 84 % 1018,5 hPa 0,0 mm W 271 0,0 km/h (0 Bft)
09.08.2020 08:20 19,8 C 84 % 1018,6 hPa 0,0 mm W 271 1,6 km/h (1 Bft)
09.08.2020 08:25 19,7 C 84 % 1018,6 hPa 0,0 mm W 271 1,6 km/h (1 Bft)
09.08.2020 08:30 19,7 C 85 % 1018,5 hPa 0,0 mm W 269 3,2 km/h (1 Bft)
09.08.2020 08:35 19,9 C 85 % 1018,6 hPa 0,0 mm W 269 3,2 km/h (1 Bft)
09.08.2020 08:40 19,9 C 85 % 1018,5 hPa 0,0 mm W 269 1,6 km/h (1 Bft)
09.08.2020 08:45 20,1 C 84 % 1018,5 hPa 0,0 mm W 269 3,2 km/h (1 Bft)
09.08.2020 08:50 20,7 C 84 % 1018,4 hPa 0,0 mm W 270 3,2 km/h (1 Bft)
09.08.2020 08:55 20,8 C 83 % 1018,4 hPa 0,0 mm W 270 3,2 km/h (1 Bft)
09.08.2020 09:00 21,3 C 83 % 1018,4 hPa 0,0 mm W 270 1,6 km/h (1 Bft)
09.08.2020 09:05 21,2 C 81 % 1018,3 hPa 0,0 mm W 270 3,2 km/h (1 Bft)
09.08.2020 09:10 21,4 C 81 % 1018,3 hPa 0,0 mm W 270 1,6 km/h (1 Bft)
09.08.2020 09:15 22,0 C 80 % 1018,3 hPa 0,0 mm W 270 1,6 km/h (1 Bft)
09.08.2020 09:20 22,1 C 80 % 1018,2 hPa 0,0 mm W 270 3,2 km/h (1 Bft)
09.08.2020 09:25 21,9 C 80 % 1018,2 hPa 0,0 mm W 270 3,2 km/h (1 Bft)
09.08.2020 09:30 22,1 C 81 % 1018,2 hPa 0,0 mm W 270 1,6 km/h (1 Bft)
09.08.2020 09:35 22,3 C 80 % 1018,2 hPa 0,0 mm W 270 3,2 km/h (1 Bft)
09.08.2020 09:40 22,4 C 80 % 1018,2 hPa 0,0 mm W 270 1,6 km/h (1 Bft)
09.08.2020 09:45 22,7 C 79 % 1018,1 hPa 0,0 mm S 173 3,2 km/h (1 Bft)
09.08.2020 09:50 22,7 C 78 % 1018,1 hPa 0,0 mm S 173 3,2 km/h (1 Bft)
09.08.2020 09:55 23,2 C 76 % 1018,0 hPa 0,0 mm S 173 3,2 km/h (1 Bft)
09.08.2020 10:00 23,2 C 77 % 1018,0 hPa 0,0 mm S 173 3,2 km/h (1 Bft)
09.08.2020 10:05 23,3 C 75 % 1018,0 hPa 0,0 mm S 172 3,2 km/h (1 Bft)
09.08.2020 10:10 23,6 C 75 % 1017,9 hPa 0,0 mm O-SO 111 6,4 km/h (2 Bft)
09.08.2020 10:15 23,8 C 75 % 1018,0 hPa 0,0 mm O-SO 119 4,8 km/h (1 Bft)
09.08.2020 10:20 24,0 C 76 % 1017,9 hPa 0,0 mm O-SO 113 4,8 km/h (1 Bft)
09.08.2020 10:25 23,9 C 75 % 1017,9 hPa 0,0 mm O-SO 113 4,8 km/h (1 Bft)
09.08.2020 10:30 24,4 C 72 % 1017,9 hPa 0,0 mm O-SO 113 3,2 km/h (1 Bft)
09.08.2020 10:35 24,8 C 69 % 1017,8 hPa 0,0 mm O-SO 113 3,2 km/h (1 Bft)
09.08.2020 10:40 24,6 C 70 % 1017,8 hPa 0,0 mm O-SO 113 4,8 km/h (1 Bft)
09.08.2020 10:45 25,1 C 68 % 1017,8 hPa 0,0 mm O-SO 113 3,2 km/h (1 Bft)
09.08.2020 10:50 25,7 C 66 % 1017,8 hPa 0,0 mm O 96 4,8 km/h (1 Bft)
09.08.2020 10:55 25,4 C 64 % 1017,8 hPa 0,0 mm SO 130 4,8 km/h (1 Bft)
09.08.2020 11:00 25,4 C 66 % 1017,7 hPa 0,0 mm S-SO 153 6,4 km/h (2 Bft)
09.08.2020 11:05 25,4 C 67 % 1017,7 hPa 0,0 mm S-SO 152 6,4 km/h (2 Bft)
09.08.2020 11:10 25,5 C 67 % 1017,7 hPa 0,0 mm O-SO 121 6,4 km/h (2 Bft)
09.08.2020 11:15 25,6 C 68 % 1017,6 hPa 0,0 mm O-SO 121 6,4 km/h (2 Bft)
09.08.2020 11:20 25,6 C 63 % 1017,6 hPa 0,0 mm O-SO 123 6,4 km/h (2 Bft)
09.08.2020 11:25 26,0 C 62 % 1017,6 hPa 0,0 mm O-SO 123 6,4 km/h (2 Bft)
09.08.2020 11:30 26,3 C 61 % 1017,5 hPa 0,0 mm SO 138 8,0 km/h (2 Bft)
09.08.2020 11:35 26,3 C 60 % 1017,5 hPa 0,0 mm SO 138 6,4 km/h (2 Bft)
09.08.2020 11:40 26,6 C 63 % 1017,5 hPa 0,0 mm O 100 8,0 km/h (2 Bft)
09.08.2020 11:45 26,5 C 64 % 1017,4 hPa 0,0 mm SO 131 8,0 km/h (2 Bft)
09.08.2020 11:50 26,5 C 62 % 1017,3 hPa 0,0 mm SO 136 8,0 km/h (2 Bft)
09.08.2020 11:55 26,8 C 64 % 1017,3 hPa 0,0 mm O-SO 123 11,3 km/h (2 Bft)
09.08.2020 12:00 26,8 C 62 % 1017,3 hPa 0,0 mm O-SO 113 11,3 km/h (2 Bft)
09.08.2020 12:05 27,1 C 60 % 1017,2 hPa 0,0 mm SO 128 9,7 km/h (2 Bft)
09.08.2020 12:10 26,9 C 59 % 1017,2 hPa 0,0 mm S-SO 152 8,0 km/h (2 Bft)
09.08.2020 12:15 26,9 C 59 % 1017,2 hPa 0,0 mm SO 139 11,3 km/h (2 Bft)
09.08.2020 12:20 27,1 C 61 % 1017,2 hPa 0,0 mm S-SO 153 9,7 km/h (2 Bft)
09.08.2020 12:25 27,4 C 59 % 1017,2 hPa 0,0 mm O-SO 119 11,3 km/h (2 Bft)
09.08.2020 12:30 27,6 C 58 % 1017,1 hPa 0,0 mm O-SO 118 11,3 km/h (2 Bft)
09.08.2020 12:35 27,4 C 58 % 1017,1 hPa 0,0 mm O-SO 109 11,3 km/h (2 Bft)
09.08.2020 12:40 27,5 C 58 % 1017,1 hPa 0,0 mm O 92 12,9 km/h (3 Bft)
09.08.2020 12:45 27,7 C 59 % 1017,1 hPa 0,0 mm O-SO 108 12,9 km/h (3 Bft)
09.08.2020 12:50 27,9 C 57 % 1017,1 hPa 0,0 mm O-SO 118 11,3 km/h (2 Bft)
09.08.2020 12:55 27,8 C 56 % 1017,0 hPa 0,0 mm SO 138 12,9 km/h (3 Bft)
09.08.2020 13:00 28,0 C 60 % 1016,9 hPa 0,0 mm O 98 12,9 km/h (3 Bft)
09.08.2020 13:05 27,8 C 58 % 1016,9 hPa 0,0 mm SO 132 9,7 km/h (2 Bft)
09.08.2020 13:10 27,8 C 58 % 1016,8 hPa 0,0 mm O-SO 119 12,9 km/h (3 Bft)
09.08.2020 13:15 27,8 C 50 % 1016,8 hPa 0,0 mm SO 140 14,5 km/h (3 Bft)
09.08.2020 13:20 27,9 C 54 % 1016,8 hPa 0,0 mm O-SO 109 12,9 km/h (3 Bft)
09.08.2020 13:25 28,1 C 56 % 1016,8 hPa 0,0 mm O-SO 105 11,3 km/h (2 Bft)
09.08.2020 13:30 28,1 C 50 % 1016,8 hPa 0,0 mm O 98 12,9 km/h (3 Bft)
09.08.2020 13:35 28,1 C 50 % 1016,7 hPa 0,0 mm SO 140 14,5 km/h (3 Bft)
09.08.2020 13:40 28,3 C 53 % 1016,8 hPa 0,0 mm SO 141 11,3 km/h (2 Bft)
09.08.2020 13:45 28,2 C 49 % 1016,8 hPa 0,0 mm O-SO 103 16,1 km/h (3 Bft)
09.08.2020 13:50 28,2 C 50 % 1016,7 hPa 0,0 mm O-NO 69 12,9 km/h (3 Bft)
09.08.2020 13:55 28,1 C 48 % 1016,8 hPa 0,0 mm O-NO 75 12,9 km/h (3 Bft)
09.08.2020 14:00 28,2 C 49 % 1016,7 hPa 0,0 mm O 88 14,5 km/h (3 Bft)
09.08.2020 14:05 28,3 C 49 % 1016,7 hPa 0,0 mm O 92 12,9 km/h (3 Bft)
09.08.2020 14:10 28,3 C 50 % 1016,7 hPa 0,0 mm O 80 12,9 km/h (3 Bft)
09.08.2020 14:15 28,3 C 51 % 1016,7 hPa 0,0 mm NO 47 16,1 km/h (3 Bft)
09.08.2020 14:20 28,3 C 48 % 1016,6 hPa 0,0 mm O 101 11,3 km/h (2 Bft)
09.08.2020 14:25 28,3 C 50 % 1016,6 hPa 0,0 mm O 84 16,1 km/h (3 Bft)
09.08.2020 14:30 28,2 C 44 % 1016,6 hPa 0,0 mm NO 49 16,1 km/h (3 Bft)
09.08.2020 14:35 28,2 C 49 % 1016,5 hPa 0,0 mm O 95 12,9 km/h (3 Bft)
09.08.2020 14:40 28,4 C 50 % 1016,5 hPa 0,0 mm O-NO 75 11,3 km/h (2 Bft)
09.08.2020 14:45 28,4 C 48 % 1016,5 hPa 0,0 mm O 94 14,5 km/h (3 Bft)
09.08.2020 14:50 28,3 C 48 % 1016,5 hPa 0,0 mm O-NO 67 12,9 km/h (3 Bft)
09.08.2020 14:55 28,3 C 46 % 1016,4 hPa 0,0 mm O-NO 71 11,3 km/h (2 Bft)
09.08.2020 15:00 28,4 C 51 % 1016,5 hPa 0,0 mm O-NO 78 14,5 km/h (3 Bft)
09.08.2020 15:05 28,3 C 48 % 1016,4 hPa 0,0 mm O-NO 73 12,9 km/h (3 Bft)
09.08.2020 15:10 28,3 C 51 % 1016,4 hPa 0,0 mm O 85 11,3 km/h (2 Bft)
09.08.2020 15:15 28,3 C 47 % 1016,3 hPa 0,0 mm O-SO 118 12,9 km/h (3 Bft)
09.08.2020 15:20 28,3 C 47 % 1016,3 hPa 0,0 mm O-NO 64 14,5 km/h (3 Bft)
09.08.2020 15:25 28,2 C 42 % 1016,2 hPa 0,0 mm N-NO 28 8,0 km/h (2 Bft)
09.08.2020 15:30 28,2 C 46 % 1016,2 hPa 0,0 mm O-SO 112 4,8 km/h (1 Bft)
09.08.2020 15:35 28,3 C 48 % 1016,2 hPa 0,0 mm O-NO 74 12,9 km/h (3 Bft)
09.08.2020 15:40 28,3 C 49 % 1016,1 hPa 0,0 mm O 92 14,5 km/h (3 Bft)
09.08.2020 15:45 28,2 C 46 % 1016,1 hPa 0,0 mm O-NO 64 11,3 km/h (2 Bft)
09.08.2020 15:50 28,2 C 48 % 1016,1 hPa 0,0 mm O-NO 70 11,3 km/h (2 Bft)
09.08.2020 15:55 28,2 C 47 % 1016,1 hPa 0,0 mm O 101 9,7 km/h (2 Bft)
09.08.2020 16:00 28,2 C 43 % 1016,1 hPa 0,0 mm O-NO 65 9,7 km/h (2 Bft)
09.08.2020 16:05 28,3 C 48 % 1016,0 hPa 0,0 mm O 82 11,3 km/h (2 Bft)
09.08.2020 16:10 28,3 C 48 % 1016,0 hPa 0,0 mm O-NO 78 8,0 km/h (2 Bft)
09.08.2020 16:15 28,3 C 48 % 1015,9 hPa 0,0 mm O-NO 78 8,0 km/h (2 Bft)
09.08.2020 16:20 28,3 C 47 % 1015,8 hPa 0,0 mm O 90 12,9 km/h (3 Bft)
09.08.2020 16:25 28,2 C 46 % 1015,8 hPa 0,0 mm O-NO 78 9,7 km/h (2 Bft)
09.08.2020 16:30 28,1 C 45 % 1015,8 hPa 0,0 mm SO 126 11,3 km/h (2 Bft)
09.08.2020 16:35 28,0 C 47 % 1015,8 hPa 0,0 mm O-SO 109 8,0 km/h (2 Bft)
09.08.2020 16:40 28,0 C 47 % 1015,7 hPa 0,0 mm O-NO 73 11,3 km/h (2 Bft)
09.08.2020 16:45 28,1 C 48 % 1015,7 hPa 0,0 mm O-NO 73 4,8 km/h (1 Bft)
09.08.2020 16:50 28,1 C 47 % 1015,7 hPa 0,0 mm O-SO 123 8,0 km/h (2 Bft)
09.08.2020 16:55 27,9 C 46 % 1015,6 hPa 0,0 mm O 97 8,0 km/h (2 Bft)
09.08.2020 17:00 27,8 C 48 % 1015,6 hPa 0,0 mm O-SO 106 8,0 km/h (2 Bft)
09.08.2020 17:05 27,8 C 47 % 1015,7 hPa 0,0 mm O-SO 105 8,0 km/h (2 Bft)
09.08.2020 17:10 27,8 C 46 % 1015,6 hPa 0,0 mm O 98 11,3 km/h (2 Bft)
09.08.2020 17:15 27,7 C 48 % 1015,6 hPa 0,0 mm SO 125 8,0 km/h (2 Bft)
09.08.2020 17:20 27,7 C 51 % 1015,6 hPa 0,0 mm O-SO 111 8,0 km/h (2 Bft)
09.08.2020 17:25 27,6 C 48 % 1015,6 hPa 0,0 mm SO 136 8,0 km/h (2 Bft)
09.08.2020 17:30 27,6 C 51 % 1015,4 hPa 0,0 mm O-SO 107 6,4 km/h (2 Bft)
09.08.2020 17:35 27,5 C 49 % 1015,4 hPa 0,0 mm O-SO 116 8,0 km/h (2 Bft)
09.08.2020 17:40 27,5 C 50 % 1015,3 hPa 0,0 mm O 82 8,0 km/h (2 Bft)
09.08.2020 17:45 27,4 C 47 % 1015,3 hPa 0,0 mm O-NO 76 4,8 km/h (1 Bft)
09.08.2020 17:50 27,5 C 49 % 1015,1 hPa 0,0 mm O 94 8,0 km/h (2 Bft)
09.08.2020 17:55 27,5 C 49 % 1015,1 hPa 0,0 mm O 96 9,7 km/h (2 Bft)
09.08.2020 18:00 27,4 C 52 % 1015,1 hPa 0,0 mm O 92 9,7 km/h (2 Bft)
09.08.2020 18:05 27,3 C 48 % 1015,1 hPa 0,0 mm O 79 8,0 km/h (2 Bft)
09.08.2020 18:10 27,3 C 56 % 1015,1 hPa 0,0 mm O 79 4,8 km/h (1 Bft)
09.08.2020 18:15 27,1 C 52 % 1015,0 hPa 0,0 mm O-NO 78 3,2 km/h (1 Bft)
09.08.2020 18:20 27,1 C 55 % 1015,0 hPa 0,0 mm O 79 3,2 km/h (1 Bft)
09.08.2020 18:25 26,9 C 56 % 1014,9 hPa 0,0 mm O 79 8,0 km/h (2 Bft)
09.08.2020 18:30 26,7 C 54 % 1014,9 hPa 0,0 mm O-SO 105 8,0 km/h (2 Bft)
09.08.2020 18:35 26,6 C 54 % 1014,9 hPa 0,0 mm O-SO 105 4,8 km/h (1 Bft)
09.08.2020 18:40 26,4 C 55 % 1014,9 hPa 0,0 mm O-SO 105 4,8 km/h (1 Bft)
09.08.2020 18:45 26,3 C 56 % 1014,8 hPa 0,0 mm O-SO 105 3,2 km/h (1 Bft)
09.08.2020 18:50 26,2 C 59 % 1014,8 hPa 0,0 mm O-SO 105 4,8 km/h (1 Bft)
09.08.2020 18:55 26,0 C 58 % 1014,8 hPa 0,0 mm O-SO 105 3,2 km/h (1 Bft)
09.08.2020 19:00 25,9 C 63 % 1014,7 hPa 0,0 mm O-SO 105 3,2 km/h (1 Bft)
09.08.2020 19:05 25,7 C 61 % 1014,8 hPa 0,0 mm O-SO 105 3,2 km/h (1 Bft)
09.08.2020 19:10 25,5 C 62 % 1014,7 hPa 0,0 mm O-SO 105 1,6 km/h (1 Bft)
09.08.2020 19:15 25,4 C 65 % 1014,8 hPa 0,0 mm O-SO 105 0,0 km/h (0 Bft)
09.08.2020 19:20 25,2 C 63 % 1014,8 hPa 0,0 mm O-SO 105 0,0 km/h (0 Bft)
09.08.2020 19:25 25,1 C 65 % 1014,7 hPa 0,0 mm O-SO 105 0,0 km/h (0 Bft)
09.08.2020 19:30 24,9 C 64 % 1014,8 hPa 0,0 mm O-SO 105 0,0 km/h (0 Bft)
09.08.2020 19:35 24,7 C 66 % 1014,8 hPa 0,0 mm O-SO 105 0,0 km/h (0 Bft)
09.08.2020 19:40 24,7 C 66 % 1014,8 hPa 0,0 mm O-SO 105 0,0 km/h (0 Bft)
09.08.2020 19:45 24,7 C 67 % 1014,9 hPa 0,0 mm O-SO 105 0,0 km/h (0 Bft)
09.08.2020 19:50 24,7 C 66 % 1014,8 hPa 0,0 mm O-SO 105 0,0 km/h (0 Bft)
09.08.2020 19:55 24,6 C 66 % 1014,8 hPa 0,0 mm O-SO 105 0,0 km/h (0 Bft)
09.08.2020 20:00 24,4 C 66 % 1014,8 hPa 0,0 mm O-SO 105 0,0 km/h (0 Bft)
09.08.2020 20:05 24,2 C 66 % 1014,9 hPa 0,0 mm O-SO 105 0,0 km/h (0 Bft)
09.08.2020 20:10 24,1 C 66 % 1014,9 hPa 0,0 mm O-SO 105 0,0 km/h (0 Bft)
09.08.2020 20:15 23,8 C 66 % 1015,0 hPa 0,0 mm O-SO 105 0,0 km/h (0 Bft)
09.08.2020 20:20 23,6 C 67 % 1015,1 hPa 0,0 mm O-SO 105 0,0 km/h (0 Bft)
09.08.2020 20:25 23,4 C 68 % 1015,0 hPa 0,0 mm O-SO 105 0,0 km/h (0 Bft)
09.08.2020 20:30 23,2 C 68 % 1015,1 hPa 0,0 mm O-SO 105 0,0 km/h (0 Bft)
09.08.2020 20:35 22,9 C 69 % 1015,1 hPa 0,0 mm O-SO 105 0,0 km/h (0 Bft)
09.08.2020 20:40 22,7 C 69 % 1015,2 hPa 0,0 mm O-SO 105 0,0 km/h (0 Bft)
09.08.2020 20:45 22,4 C 69 % 1015,2 hPa 0,0 mm O-SO 105 0,0 km/h (0 Bft)
09.08.2020 20:50 22,1 C 69 % 1015,3 hPa 0,0 mm O-SO 105 0,0 km/h (0 Bft)
09.08.2020 20:55 21,8 C 70 % 1015,3 hPa 0,0 mm O-SO 105 0,0 km/h (0 Bft)
09.08.2020 21:00 21,7 C 70 % 1015,3 hPa 0,0 mm O-SO 105 0,0 km/h (0 Bft)
09.08.2020 21:05 21,4 C 70 % 1015,4 hPa 0,0 mm O-SO 115 3,2 km/h (1 Bft)
09.08.2020 21:10 21,1 C 70 % 1015,4 hPa 0,0 mm O-SO 115 0,0 km/h (0 Bft)
09.08.2020 21:15 20,9 C 71 % 1015,5 hPa 0,0 mm O-SO 115 1,6 km/h (1 Bft)
09.08.2020 21:20 20,7 C 71 % 1015,5 hPa 0,0 mm O-SO 115 3,2 km/h (1 Bft)
09.08.2020 21:25 20,6 C 72 % 1015,6 hPa 0,0 mm O-SO 115 0,0 km/h (0 Bft)
09.08.2020 21:30 20,4 C 72 % 1015,7 hPa 0,0 mm O-SO 115 1,6 km/h (1 Bft)
09.08.2020 21:35 20,2 C 72 % 1015,8 hPa 0,0 mm O-SO 115 1,6 km/h (1 Bft)
09.08.2020 21:40 20,1 C 74 % 1015,8 hPa 0,0 mm O-SO 115 0,0 km/h (0 Bft)
09.08.2020 21:45 19,9 C 74 % 1015,7 hPa 0,0 mm O-SO 115 0,0 km/h (0 Bft)
09.08.2020 21:50 19,7 C 74 % 1015,8 hPa 0,0 mm O-SO 115 0,0 km/h (0 Bft)
09.08.2020 21:55 19,6 C 74 % 1015,8 hPa 0,0 mm O-SO 115 0,0 km/h (0 Bft)
09.08.2020 22:00 19,4 C 75 % 1015,9 hPa 0,0 mm O-SO 115 1,6 km/h (1 Bft)
09.08.2020 22:05 19,2 C 75 % 1015,8 hPa 0,0 mm O-SO 115 0,0 km/h (0 Bft)
09.08.2020 22:10 19,1 C 75 % 1015,8 hPa 0,0 mm O-SO 115 0,0 km/h (0 Bft)
09.08.2020 22:15 18,9 C 76 % 1015,7 hPa 0,0 mm O-SO 115 0,0 km/h (0 Bft)
09.08.2020 22:20 18,7 C 76 % 1015,9 hPa 0,0 mm O-SO 115 0,0 km/h (0 Bft)
09.08.2020 22:25 18,6 C 76 % 1015,9 hPa 0,0 mm O-SO 115 0,0 km/h (0 Bft)
09.08.2020 22:30 18,4 C 77 % 1015,9 hPa 0,0 mm O-SO 115 0,0 km/h (0 Bft)
09.08.2020 22:35 18,3 C 77 % 1015,9 hPa 0,0 mm O-SO 115 0,0 km/h (0 Bft)
09.08.2020 22:40 18,1 C 77 % 1015,9 hPa 0,0 mm O-SO 115 0,0 km/h (0 Bft)
09.08.2020 22:45 18,0 C 78 % 1015,9 hPa 0,0 mm O-SO 115 0,0 km/h (0 Bft)
09.08.2020 22:50 17,8 C 78 % 1015,9 hPa 0,0 mm O-SO 115 0,0 km/h (0 Bft)
09.08.2020 22:55 17,7 C 78 % 1015,8 hPa 0,0 mm O-SO 115 0,0 km/h (0 Bft)
09.08.2020 23:00 17,6 C 79 % 1015,8 hPa 0,0 mm O-SO 115 0,0 km/h (0 Bft)
09.08.2020 23:05 17,5 C 79 % 1015,8 hPa 0,0 mm O-SO 115 0,0 km/h (0 Bft)
09.08.2020 23:10 17,3 C 79 % 1015,8 hPa 0,0 mm O-SO 115 0,0 km/h (0 Bft)
09.08.2020 23:15 17,2 C 79 % 1015,8 hPa 0,0 mm O-SO 115 0,0 km/h (0 Bft)
09.08.2020 23:20 17,2 C 80 % 1015,9 hPa 0,0 mm O-SO 115 0,0 km/h (0 Bft)
09.08.2020 23:25 17,1 C 80 % 1015,9 hPa 0,0 mm O-SO 115 0,0 km/h (0 Bft)
09.08.2020 23:30 17,0 C 80 % 1015,9 hPa 0,0 mm O-SO 115 0,0 km/h (0 Bft)
09.08.2020 23:35 16,9 C 81 % 1016,0 hPa 0,0 mm O-SO 115 0,0 km/h (0 Bft)
09.08.2020 23:40 16,8 C 81 % 1015,9 hPa 0,0 mm O-SO 115 0,0 km/h (0 Bft)
09.08.2020 23:45 16,7 C 81 % 1015,9 hPa 0,0 mm O-SO 115 0,0 km/h (0 Bft)
09.08.2020 23:50 16,6 C 81 % 1015,9 hPa 0,0 mm O-SO 115 0,0 km/h (0 Bft)
09.08.2020 23:55 16,6 C 81 % 1015,9 hPa 0,0 mm O-SO 115 0,0 km/h (0 Bft)
_ Min-Zeit 06:05 15:25 19:00 - - - 00:00
Minimum _ 14,4 C 42 % 1014,7 hPa - - - 0,0 km/h (0 Bft)
_ Max-Zeit 14:45 07:10 08:20 00:00 - - 13:45
Maximum _ 28,5 C 91 % 1018,6 hPa 0,0 mm - - 16,1 km/h
O-SO (3 Bft)
Durchschnitt _ 21,7 C 72 % 1017,0 hPa #0,0 mm W - 4,1 km/h (1 Bft)